• în Republica Moldova
  • Lista ţărilor
  • Pe 7 zile
  • Temperatura apei
  • Hartă satelitară
  • Meteo pe hartă
  • Widget-uri
  • user-avatar
    Intrare

    Meteo pe oră la Salzburg

    Astăzi, 23 Septembrie, Sâmbătă

    Timp Temperatura Precipitaţii Vânt Presiune Umiditate
    00:00 +3°C° 0 mm 1 m/s 628 mmHg 85%
    01:00 +2°C° 0 mm 2 m/s 628 mmHg 80%
    02:00 +2°C° 0 mm 2 m/s 628 mmHg 82%
    03:00 +1°C° 0 mm 2 m/s 628 mmHg 83%
    04:00 +2°C° 0 mm 1 m/s 628 mmHg 85%
    05:00 +3°C° 0 mm 1 m/s 628 mmHg 84%
    06:00 +3°C° 0 mm 1 m/s 628 mmHg 83%
    07:00 +4°C° 0 mm 1 m/s 628 mmHg 82%
    08:00 +6°C° 0 mm 1 m/s 629 mmHg 76%
    09:00 +8°C° 0 mm 1 m/s 630 mmHg 70%
    10:00 +11°C° 0 mm 1 m/s 631 mmHg 64%
    11:00 +12°C° 0 mm 1 m/s 631 mmHg 62%
    12:00 +12°C° 0 mm 1 m/s 631 mmHg 61%
    13:00 +13°C° 0 mm 1 m/s 630 mmHg 59%
    14:00 +12°C° 0 mm 1 m/s 630 mmHg 63%
    15:00 +12°C° 0 mm 1 m/s 630 mmHg 66%
    16:00 +11°C° 0 mm 1 m/s 629 mmHg 70%
    17:00 +9°C° 0,1 mm 1 m/s 629 mmHg 78%
    18:00 +7°C° 0,1 mm 1 m/s 628 mmHg 86%
    19:00 +4°C° 0,1 mm 0 m/s 628 mmHg 94%
    20:00 +5°C° 0 mm 1 m/s 628 mmHg 95%
    21:00 +5°C° 0 mm 1 m/s 628 mmHg 95%
    22:00 +4°C° 0 mm 1 m/s 628 mmHg 96%
    23:00 +4°C° 0 mm 1 m/s 628 mmHg 96%

    Mâine, 24 Septembrie, Duminică

    Timp Temperatura Precipitaţii Vânt Presiune Umiditate
    00:00 +4°C° 0 mm 1 m/s 627 mmHg 96%
    01:00 +3°C° 0 mm 1 m/s 627 mmHg 96%
    02:00 +3°C° 0 mm 1 m/s 627 mmHg 96%
    03:00 +3°C° 0 mm 1 m/s 627 mmHg 96%
    04:00 +3°C° 0 mm 1 m/s 627 mmHg 95%
    05:00 +3°C° 0 mm 1 m/s 627 mmHg 94%
    06:00 +4°C° 0 mm 1 m/s 627 mmHg 93%
    07:00 +4°C° 0 mm 1 m/s 628 mmHg 92%
    08:00 +6°C° 0 mm 1 m/s 628 mmHg 87%
    09:00 +8°C° 0 mm 1 m/s 629 mmHg 82%
    10:00 +9°C° 0 mm 1 m/s 629 mmHg 77%
    11:00 +10°C° 0,3 mm 1 m/s 629 mmHg 77%
    12:00 +10°C° 0,3 mm 1 m/s 629 mmHg 76%
    13:00 +11°C° 0,3 mm 1 m/s 629 mmHg 75%
    14:00 +10°C° 0,4 mm 1 m/s 629 mmHg 78%
    15:00 +10°C° 0,4 mm 1 m/s 629 mmHg 80%
    16:00 +9°C° 0,4 mm 1 m/s 629 mmHg 82%
    17:00 +8°C° 0,1 mm 1 m/s 628 mmHg 86%
    18:00 +6°C° 0,1 mm 1 m/s 628 mmHg 91%
    19:00 +5°C° 0,1 mm 1 m/s 628 mmHg 95%
    20:00 +4°C° 0 mm 1 m/s 628 mmHg 95%
    21:00 +4°C° 0 mm 1 m/s 628 mmHg 96%
    22:00 +3°C° 0 mm 1 m/s 628 mmHg 96%
    23:00 +3°C° 0 mm 1 m/s 628 mmHg 96%

    Poimâine, 25 Septembrie, Luni

    Timp Temperatura Precipitaţii Vânt Presiune Umiditate
    00:00 +3°C° 0 mm 1 m/s 627 mmHg 95%
    01:00 +2°C° 0 mm 1 m/s 627 mmHg 95%
    02:00 +2°C° 0 mm 1 m/s 627 mmHg 93%
    03:00 +2°C° 0 mm 1 m/s 627 mmHg 92%
    04:00 +1°C° 0 mm 1 m/s 626 mmHg 91%
    05:00 +2°C° 0 mm 1 m/s 627 mmHg 90%
    06:00 +2°C° 0 mm 1 m/s 627 mmHg 89%
    07:00 +2°C° 0 mm 1 m/s 627 mmHg 87%
    08:00 +5°C° 0 mm 1 m/s 628 mmHg 79%
    09:00 +7°C° 0 mm 0 m/s 629 mmHg 71%
    10:00 +9°C° 0 mm 0 m/s 630 mmHg 63%
    11:00 +11°C° 0 mm 1 m/s 630 mmHg 61%
    12:00 +12°C° 0 mm 1 m/s 630 mmHg 58%
    13:00 +13°C° 0 mm 1 m/s 630 mmHg 56%
    14:00 +12°C° 0,2 mm 1 m/s 630 mmHg 61%
    15:00 +12°C° 0,2 mm 1 m/s 629 mmHg 66%
    16:00 +10°C° 0,2 mm 2 m/s 629 mmHg 71%
    17:00 +9°C° 0,2 mm 1 m/s 628 mmHg 78%
    18:00 +7°C° 0,2 mm 1 m/s 628 mmHg 86%
    19:00 +5°C° 0,2 mm 1 m/s 627 mmHg 93%
    20:00 +5°C° 0 mm 1 m/s 627 mmHg 93%
    21:00 +4°C° 0 mm 1 m/s 628 mmHg 93%
    22:00 +4°C° 0 mm 1 m/s 628 mmHg 93%
    23:00 +3°C° 0 mm 1 m/s 627 mmHg 93%

    26 Septembrie, Marţi

    Timp Temperatura Precipitaţii Vânt Presiune Umiditate
    00:00 +3°C° 0 mm 1 m/s 627 mmHg 93%
    01:00 +3°C° 0 mm 1 m/s 627 mmHg 93%
    02:00 +3°C° 0 mm 1 m/s 627 mmHg 92%
    03:00 +2°C° 0 mm 1 m/s 627 mmHg 92%
    04:00 +2°C° 0 mm 1 m/s 627 mmHg 91%
    05:00 +2°C° 0 mm 1 m/s 627 mmHg 90%
    06:00 +3°C° 0 mm 1 m/s 627 mmHg 88%
    07:00 +3°C° 0 mm 1 m/s 628 mmHg 86%
    08:00 +6°C° 0 mm 1 m/s 628 mmHg 77%
    09:00 +9°C° 0 mm 1 m/s 629 mmHg 68%
    10:00 +11°C° 0 mm 1 m/s 630 mmHg 58%
    11:00 +12°C° 0 mm 1 m/s 630 mmHg 56%
    12:00 +13°C° 0 mm 1 m/s 630 mmHg 54%
    13:00 +14°C° 0 mm 1 m/s 630 mmHg 52%
    14:00 +13°C° 0,1 mm 1 m/s 630 mmHg 58%
    15:00 +12°C° 0,1 mm 1 m/s 630 mmHg 63%
    16:00 +12°C° 0,1 mm 2 m/s 629 mmHg 69%
    17:00 +10°C° 0,2 mm 1 m/s 629 mmHg 77%
    18:00 +7°C° 0,2 mm 1 m/s 628 mmHg 85%
    19:00 +5°C° 0,2 mm 1 m/s 628 mmHg 93%
    20:00 +5°C° 0 mm 1 m/s 628 mmHg 93%
    21:00 +5°C° 0 mm 1 m/s 628 mmHg 93%
    22:00 +4°C° 0 mm 1 m/s 628 mmHg 93%
    23:00 +4°C° 0 mm 1 m/s 628 mmHg 93%

    27 Septembrie, Miercuri

    Timp Temperatura Precipitaţii Vânt Presiune Umiditate
    00:00 +4°C° 0 mm 1 m/s 628 mmHg 93%
    01:00 +4°C° 0 mm 1 m/s 628 mmHg 92%
    02:00 +3°C° 0 mm 1 m/s 628 mmHg 92%
    03:00 +3°C° 0 mm 1 m/s 628 mmHg 91%
    04:00 +3°C° 0 mm 1 m/s 628 mmHg 91%
    05:00 +3°C° 0 mm 1 m/s 628 mmHg 90%
    06:00 +4°C° 0 mm 1 m/s 629 mmHg 89%
    07:00 +4°C° 0 mm 1 m/s 629 mmHg 88%
    08:00 +7°C° 0 mm 1 m/s 630 mmHg 80%
    09:00 +9°C° 0 mm 1 m/s 631 mmHg 71%
    10:00 +12°C° 0 mm 1 m/s 632 mmHg 63%
    11:00 +13°C° 0,1 mm 1 m/s 632 mmHg 62%
    12:00 +13°C° 0,1 mm 1 m/s 632 mmHg 60%
    13:00 +14°C° 0,1 mm 1 m/s 632 mmHg 59%
    14:00 +13°C° 0,5 mm 1 m/s 632 mmHg 65%
    15:00 +13°C° 0,5 mm 1 m/s 632 mmHg 70%
    16:00 +12°C° 0,5 mm 1 m/s 632 mmHg 75%
    17:00 +10°C° 0,5 mm 1 m/s 631 mmHg 81%
    18:00 +8°C° 0,5 mm 1 m/s 631 mmHg 87%
    19:00 +6°C° 0,5 mm 0 m/s 630 mmHg 93%
    20:00 +6°C° 0,2 mm 1 m/s 630 mmHg 93%
    21:00 +6°C° 0,2 mm 1 m/s 630 mmHg 93%
    22:00 +6°C° 0,2 mm 1 m/s 630 mmHg 93%
    23:00 +6°C° 0,2 mm 1 m/s 630 mmHg 93%

    28 Septembrie, Joi

    Timp Temperatura Precipitaţii Vânt Presiune Umiditate
    00:00 +5°C° 0,2 mm 1 m/s 630 mmHg 93%
    01:00 +5°C° 0,2 mm 1 m/s 630 mmHg 93%
    02:00 +5°C° 0,1 mm 1 m/s 630 mmHg 93%
    03:00 +5°C° 0,1 mm 1 m/s 630 mmHg 92%
    04:00 +5°C° 0,1 mm 1 m/s 630 mmHg 92%
    05:00 +5°C° 0 mm 1 m/s 630 mmHg 92%
    06:00 +5°C° 0 mm 1 m/s 631 mmHg 91%
    07:00 +6°C° 0 mm 1 m/s 631 mmHg 91%
    08:00 +8°C° 0,1 mm 1 m/s 632 mmHg 85%
    09:00 +8°C° 0,1 mm 0 m/s 632 mmHg 79%
    10:00 +10°C° 0,1 mm 0 m/s 633 mmHg 73%
    11:00 +11°C° 0,5 mm 0 m/s 633 mmHg 72%
    12:00 +12°C° 0,5 mm 1 m/s 633 mmHg 71%
    13:00 +13°C° 0,5 mm 1 m/s 633 mmHg 70%
    14:00 +12°C° 0,8 mm 1 m/s 633 mmHg 74%
    15:00 +12°C° 0,8 mm 1 m/s 632 mmHg 78%
    16:00 +11°C° 0,8 mm 1 m/s 632 mmHg 82%
    17:00 +10°C° 0,3 mm 1 m/s 632 mmHg 86%
    18:00 +8°C° 0,3 mm 1 m/s 632 mmHg 90%
    19:00 +7°C° 0,3 mm 1 m/s 631 mmHg 94%
    20:00 +6°C° 0 mm 1 m/s 631 mmHg 94%
    21:00 +6°C° 0 mm 1 m/s 631 mmHg 94%
    22:00 +5°C° 0 mm 1 m/s 631 mmHg 94%
    23:00 +5°C° 0 mm 1 m/s 631 mmHg 93%
    Arată mai mult